Location: ???????
(55.3754°N, 39.3545°E)
Time: 19:23:21
(UTC+00:00)

COSMOS 2428 - Pass Details

Date: 14 April 2026
Orbit: 844 x 855 km, 70.9° (Epoch: 19 May)

Event Time Altitude Azimuth Distance (km) Brightness Sun altitude
Rises 17:11:56 0° 184° (S) 3,413 5.6 -6.9°
Reaches altitude 10° 17:14:30 10° 177° (S) 2,482 4.8 -7.2°
Maximum altitude 17:19:46 40° 110° (ESE) 1,252 3.2 -7.8°
Drops below altitude 10° 17:25:03 10° 43° (NE) 2,498 5.0 -8.5°
Sets 17:27:38 0° 37° (NE) 3,438 5.8 -8.8°
